Location: Callao
(39.8979°N, 113.7141°W)
Time: 09:26:42
(UTC+00:00)

Envisat - Visible Passes

Search period start: 27 February 2021 00:00
Search period end: 09 March 2021 00:00
Orbit: 764 x 766 km, 98.1° (Epoch: 26 February)

Date Brightness Start Highest point End Pass type
(mag) Time Alt. Az. Time Alt. Az. Time Alt. Az.
27 Feb 4.9 12:32:24 10° NE 12:36:54 31° E 12:41:22 10° SSE visible
28 Feb 6.1 11:57:14 10° ENE 11:59:46 14° E 12:02:15 10° ESE visible
28 Feb 3.0 13:34:10 10° N 13:39:13 66° WNW 13:44:14 10° SSW visible
01 Mar 3.8 12:57:24 10° NNE 13:02:24 55° E 13:07:22 10° S visible
02 Mar 6.5 01:53:08 10° WSW 01:55:32 13° W 01:57:57 10° WNW visible
02 Mar 5.4 12:21:17 10° NE 12:25:24 24° E 12:29:30 10° SSE visible
03 Mar 6.4 11:47:34 10° E 11:48:12 10° E 11:48:49 10° E visible
03 Mar 3.0 13:22:42 10° N 13:27:49 84° WNW 13:32:53 10° SSW visible
04 Mar 4.3 12:46:06 10° NNE 12:50:56 43° E 12:55:45 10° S visible
05 Mar 5.7 12:10:17 10° NE 12:13:52 19° E 12:17:27 10° SE visible
06 Mar 3.2 13:11:17 10° NNE 13:16:23 77° ESE 13:21:28 10° S visible
07 Mar 4.8 12:34:52 10° NNE 12:39:28 34° E 12:44:02 10° SSE visible
08 Mar 6.0 11:59:29 10° NE 12:02:20 15° E 12:05:11 10° SE visible
